This is the latest recevied weather packets stored in our database for station/object HB0PJ-13. If no packets are shown the sender has not sent any weather packets the latest 1 day(s).
| Time | Temp. | Humidity | Pressure | Rain* | Wind** | Luminosity | Snow |
|---|---|---|---|---|---|---|---|
| 1778082606 | 15.56° C | 58% | 952.7 hPa | - | - | 19 W/m² | - |
| 1778082366 | 15.56° C | 59% | 952.7 hPa | - | - | 27 W/m² | - |
| 1778082246 | 15.56° C | 58% | 952.7 hPa | - | - | 22 W/m² | - |
| 1778082126 | 15° C | 58% | 952.6 hPa | - | - | 11 W/m² | - |
| 1778082006 | 15° C | 58% | 952.8 hPa | - | - | 11 W/m² | - |
| 1778081886 | 15° C | 59% | 952.7 hPa | - | - | 11 W/m² | - |
| 1778081646 | 14.44° C | 57% | 952.6 hPa | - | - | 14 W/m² | - |
| 1778081526 | 14.44° C | 57% | 952.6 hPa | - | - | 15 W/m² | - |
| 1778081286 | 14.44° C | 59% | 952.6 hPa | - | - | 14 W/m² | - |
| 1778081166 | 14.44° C | 59% | 952.7 hPa | - | - | 13 W/m² | - |
| 1778080926 | 14.44° C | 58% | 952.6 hPa | - | - | 14 W/m² | - |
| 1778080806 | 13.89° C | 59% | 952.6 hPa | - | - | 14 W/m² | - |
| 1778080566 | 13.89° C | 60% | 952.8 hPa | - | - | 12 W/m² | - |
| 1778080326 | 13.89° C | 61% | 952.9 hPa | - | - | 14 W/m² | - |
| 1778080086 | 13.89° C | 60% | 953.1 hPa | - | - | 13 W/m² | - |
| 1778079966 | 13.33° C | 61% | 953.1 hPa | - | - | 14 W/m² | - |
| 1778079606 | 13.33° C | 64% | 953 hPa | - | - | 17 W/m² | - |
| 1778079486 | 13.33° C | 64% | 952.8 hPa | - | - | 12 W/m² | - |
| 1778079246 | 13.33° C | 60% | 952.3 hPa | - | - | 5 W/m² | - |
| 1778079126 | 13.33° C | 57% | 952.1 hPa | - | - | 3 W/m² | - |
| 1778079006 | 13.33° C | 55% | 952 hPa | - | - | 2 W/m² | - |
| 1778078766 | 13.89° C | 54% | 951.8 hPa | - | - | 2 W/m² | - |
| 1778078646 | 13.89° C | 53% | 951.9 hPa | - | - | 3 W/m² | - |
| 1778078526 | 13.89° C | 52% | 951.6 hPa | - | - | 4 W/m² | - |
| 1778078406 | 13.89° C | 52% | 951.4 hPa | - | - | 4 W/m² | - |
* Rain since midnight (hover to see other rain measurements)
** Current wind speed in m/s (hover to see current wind gust speed)